Time,TemperatureF,DewpointF,PressureIn,WindDirection,WindDirectionDegrees,WindSpeedMPH,WindSpeedGustMPH,Humidity,HourlyPrecipIn,Conditions,Clouds,dailyrainin,SoftwareType,DateUTC
2013-04-20 00:02:00,27.0,21.0,-100.00,WSW,244,22.0,30.0,78,0.00,,,-99.99,,2013-04-20 06:02:00,
2013-04-20 00:12:00,27.0,22.0,-100.00,WSW,244,21.0,25.0,80,0.00,,,-99.99,,2013-04-20 06:12:00,
2013-04-20 00:21:00,27.0,21.0,-100.00,WSW,244,19.0,24.0,79,0.00,,,-99.99,,2013-04-20 06:21:00,
2013-04-20 00:32:00,27.0,21.0,-100.00,WSW,244,18.0,23.0,76,0.00,,,-99.99,,2013-04-20 06:32:00,
2013-04-20 00:42:00,27.0,21.0,-100.00,WSW,244,19.0,24.0,79,0.00,,,-99.99,,2013-04-20 06:42:00,
2013-04-20 00:52:00,27.0,21.0,-100.00,WSW,244,20.0,25.0,77,0.00,,,-99.99,,2013-04-20 06:52:00,
2013-04-20 01:01:00,27.0,21.0,-100.00,WSW,244,21.0,26.0,77,0.00,,,-99.99,,2013-04-20 07:01:00,
2013-04-20 01:11:00,27.0,21.0,-100.00,WSW,244,19.0,26.0,78,0.00,,,-99.99,,2013-04-20 07:11:00,
2013-04-20 01:21:00,27.0,21.0,-100.00,WSW,244,17.0,22.0,79,0.00,,,-99.99,,2013-04-20 07:21:00,
2013-04-20 01:32:00,27.0,22.0,-100.00,WSW,244,16.0,21.0,80,0.00,,,-99.99,,2013-04-20 07:32:00,
2013-04-20 01:42:00,27.0,21.0,-100.00,WSW,244,17.0,21.0,80,0.01,,,-99.99,,2013-04-20 07:42:00,
2013-04-20 01:52:00,27.0,21.0,-100.00,WSW,244,17.0,24.0,77,0.00,,,-99.99,,2013-04-20 07:52:00,
2013-04-20 02:01:00,27.0,21.0,-100.00,WSW,244,17.0,23.0,77,0.00,,,-99.99,,2013-04-20 08:01:00,
2013-04-20 02:11:00,27.0,21.0,-100.00,WSW,244,18.0,23.0,77,0.00,,,-99.99,,2013-04-20 08:11:00,
2013-04-20 02:21:00,27.0,21.0,-100.00,WSW,244,18.0,23.0,77,0.00,,,-99.99,,2013-04-20 08:21:00,
2013-04-20 02:31:00,27.0,21.0,-100.00,WSW,244,18.0,23.0,78,0.00,,,-99.99,,2013-04-20 08:31:00,
2013-04-20 02:42:00,27.0,21.0,-100.00,WSW,244,19.0,24.0,76,0.00,,,-99.99,,2013-04-20 08:42:00,
2013-04-20 02:52:00,27.0,21.0,-100.00,WSW,244,18.0,22.0,77,0.00,,,-99.99,,2013-04-20 08:52:00,
2013-04-20 03:01:00,27.0,21.0,-100.00,WSW,244,18.0,24.0,78,0.00,,,-99.99,,2013-04-20 09:01:00,
2013-04-20 03:12:00,26.0,21.0,-100.00,WSW,244,18.0,22.0,79,0.00,,,-99.99,,2013-04-20 09:12:00,
2013-04-20 03:21:00,26.0,21.0,-100.00,WSW,244,17.0,21.0,79,0.00,,,-99.99,,2013-04-20 09:21:00,
2013-04-20 03:32:00,26.0,21.0,-100.00,WSW,244,17.0,22.0,79,0.01,,,-99.99,,2013-04-20 09:32:00,
2013-04-20 03:43:00,27.0,21.0,-100.00,WSW,244,17.0,21.0,78,0.00,,,-99.99,,2013-04-20 09:43:00,
2013-04-20 03:52:00,27.0,21.0,-100.00,WSW,244,19.0,24.0,78,0.00,,,-99.99,,2013-04-20 09:52:00,
2013-04-20 04:02:00,27.0,21.0,-100.00,WSW,244,20.0,25.0,78,0.00,,,-99.99,,2013-04-20 10:02:00,
2013-04-20 04:12:00,26.0,21.0,-100.00,WSW,244,21.0,25.0,79,0.00,,,-99.99,,2013-04-20 10:12:00,
2013-04-20 04:23:00,26.0,21.0,-100.00,WSW,244,22.0,28.0,78,0.00,,,-99.99,,2013-04-20 10:23:00,
2013-04-20 04:33:00,27.0,21.0,-100.00,WSW,244,24.0,28.0,78,0.00,,,-99.99,,2013-04-20 10:33:00,
2013-04-20 04:42:00,27.0,21.0,-100.00,WSW,244,21.0,26.0,79,0.00,,,-99.99,,2013-04-20 10:42:00,
2013-04-20 04:52:00,27.0,21.0,-100.00,WSW,244,21.0,26.0,79,0.00,,,-99.99,,2013-04-20 10:52:00,
2013-04-20 05:02:00,27.0,21.0,-100.00,WSW,244,24.0,29.0,79,0.00,,,-99.99,,2013-04-20 11:02:00,
2013-04-20 05:12:00,27.0,21.0,-100.00,WSW,244,24.0,32.0,80,0.00,,,-99.99,,2013-04-20 11:12:00,
2013-04-20 05:23:00,27.0,22.0,-100.00,WSW,244,26.0,32.0,80,0.00,,,-99.99,,2013-04-20 11:23:00,
2013-04-20 05:32:00,27.0,22.0,-100.00,WSW,244,26.0,34.0,80,0.00,,,-99.99,,2013-04-20 11:32:00,
2013-04-20 05:42:00,27.0,22.0,-100.00,WSW,244,27.0,34.0,80,0.00,,,-99.99,,2013-04-20 11:42:00,
2013-04-20 05:52:00,27.0,22.0,-100.00,WSW,244,27.0,34.0,80,0.00,,,-99.99,,2013-04-20 11:52:00,
2013-04-20 06:02:00,27.0,22.0,-100.00,WSW,244,24.0,29.0,81,0.00,,,-99.99,,2013-04-20 12:02:00,
2013-04-20 06:11:00,27.0,22.0,-100.00,WSW,244,22.0,27.0,81,0.00,,,-99.99,,2013-04-20 12:11:00,
2013-04-20 06:22:00,26.0,22.0,-100.00,WSW,244,23.0,29.0,82,0.00,,,-99.99,,2013-04-20 12:22:00,
2013-04-20 06:32:00,26.0,22.0,-100.00,WSW,244,22.0,28.0,84,0.00,,,-99.99,,2013-04-20 12:32:00,
2013-04-20 06:42:00,26.0,22.0,-100.00,WSW,244,26.0,30.0,83,0.00,,,-99.99,,2013-04-20 12:42:00,
2013-04-20 06:51:00,26.0,22.0,-100.00,WSW,244,25.0,30.0,83,0.00,,,-99.99,,2013-04-20 12:51:00,
2013-04-20 07:02:00,27.0,22.0,-100.00,WSW,244,22.0,29.0,82,0.00,,,-99.99,,2013-04-20 13:02:00,
2013-04-20 07:11:00,27.0,22.0,-100.00,WSW,244,22.0,29.0,83,0.00,,,-99.99,,2013-04-20 13:11:00,
2013-04-20 07:21:00,27.0,23.0,-100.00,WSW,244,23.0,30.0,82,0.00,,,-99.99,,2013-04-20 13:21:00,
2013-04-20 07:31:00,28.0,23.0,-100.00,WSW,244,21.0,27.0,82,0.00,,,-99.99,,2013-04-20 13:31:00,
2013-04-20 07:42:00,27.0,23.0,-100.00,WSW,244,20.0,26.0,81,0.00,,,-99.99,,2013-04-20 13:42:00,
2013-04-20 07:52:00,27.0,22.0,-100.00,WSW,244,19.0,24.0,81,0.00,,,-99.99,,2013-04-20 13:52:00,
2013-04-20 08:02:00,28.0,23.0,-100.00,WSW,244,17.0,25.0,81,0.00,,,-99.99,,2013-04-20 14:02:00,
2013-04-20 08:11:00,28.0,23.0,-100.00,WSW,244,15.0,20.0,81,0.00,,,-99.99,,2013-04-20 14:11:00,
2013-04-20 08:21:00,28.0,23.0,-100.00,WSW,244,14.0,19.0,81,0.00,,,-99.99,,2013-04-20 14:21:00,
2013-04-20 08:31:00,29.0,23.0,-100.00,WSW,244,15.0,20.0,81,0.00,,,-99.99,,2013-04-20 14:31:00,
2013-04-20 08:42:00,29.0,24.0,-100.00,WSW,244,16.0,21.0,80,0.00,,,-99.99,,2013-04-20 14:42:00,
2013-04-20 08:51:00,29.0,24.0,-100.00,WSW,244,14.0,19.0,79,0.00,,,-99.99,,2013-04-20 14:51:00,
2013-04-20 09:01:00,30.0,24.0,-100.00,WSW,244,17.0,21.0,79,0.01,,,-99.99,,2013-04-20 15:01:00,
2013-04-20 09:11:00,30.0,24.0,-100.00,WSW,244,17.0,22.0,79,0.00,,,-99.99,,2013-04-20 15:11:00,
2013-04-20 09:21:00,30.0,24.0,-100.00,WSW,244,17.0,22.0,79,0.00,,,-99.99,,2013-04-20 15:21:00,
2013-04-20 09:33:00,29.0,24.0,-100.00,WSW,244,17.0,22.0,78,0.00,,,-99.99,,2013-04-20 15:33:00,
2013-04-20 09:53:00,30.0,24.0,-100.00,WSW,244,16.0,21.0,79,0.00,,,-99.99,,2013-04-20 15:53:00,
2013-04-20 10:03:00,31.0,24.0,-100.00,WSW,244,17.0,22.0,75,0.00,,,-99.99,,2013-04-20 16:03:00,
2013-04-20 10:12:00,30.0,24.0,-100.00,WSW,244,17.0,22.0,77,0.00,,,-99.99,,2013-04-20 16:12:00,
2013-04-20 10:23:00,31.0,24.0,-100.00,WSW,244,16.0,21.0,76,0.00,,,-99.99,,2013-04-20 16:23:00,
2013-04-20 10:32:00,31.0,24.0,-100.00,WSW,244,16.0,20.0,75,0.00,,,-99.99,,2013-04-20 16:32:00,
2013-04-20 10:42:00,32.0,24.0,-100.00,WSW,244,17.0,22.0,74,0.00,,,-99.99,,2013-04-20 16:42:00,
2013-04-20 10:52:00,32.0,25.0,-100.00,WSW,244,20.0,25.0,77,0.00,,,-99.99,,2013-04-20 16:52:00,
2013-04-20 11:02:00,31.0,25.0,-100.00,WSW,244,19.0,26.0,75,0.00,,,-99.99,,2013-04-20 17:02:00,
2013-04-20 11:12:00,32.0,24.0,-100.00,WSW,244,21.0,28.0,73,0.00,,,-99.99,,2013-04-20 17:12:00,
2013-04-20 11:23:00,32.0,25.0,-100.00,WSW,244,24.0,31.0,74,0.00,,,-99.99,,2013-04-20 17:23:00,
2013-04-20 11:33:00,31.0,25.0,-100.00,WSW,244,24.0,30.0,77,0.00,,,-99.99,,2013-04-20 17:33:00,
2013-04-20 11:42:00,31.0,26.0,-100.00,WSW,244,24.0,30.0,78,0.00,,,-99.99,,2013-04-20 17:42:00,
2013-04-20 11:52:00,32.0,25.0,-100.00,WSW,244,26.0,31.0,77,0.00,,,-99.99,,2013-04-20 17:52:00,
2013-04-20 12:02:00,32.0,26.0,-100.00,WSW,244,24.0,30.0,79,0.00,,,-99.99,,2013-04-20 18:02:00,
2013-04-20 12:12:00,32.0,25.0,-100.00,WSW,244,22.0,28.0,75,0.00,,,-99.99,,2013-04-20 18:12:00,
2013-04-20 12:22:00,32.0,25.0,-100.00,WSW,244,21.0,27.0,75,0.00,,,-99.99,,2013-04-20 18:22:00,
2013-04-20 12:32:00,33.0,26.0,-100.00,WSW,244,19.0,25.0,75,0.00,,,-99.99,,2013-04-20 18:32:00,
2013-04-20 12:41:00,33.0,25.0,-100.00,WSW,244,19.0,25.0,73,0.00,,,-99.99,,2013-04-20 18:41:00,
2013-04-20 12:52:00,33.0,26.0,-100.00,WSW,244,17.0,22.0,73,0.00,,,-99.99,,2013-04-20 18:52:00,
2013-04-20 13:01:00,34.0,26.0,-100.00,WSW,244,17.0,22.0,70,0.00,,,-99.99,,2013-04-20 19:01:00,
2013-04-20 13:11:00,35.0,25.0,-100.00,WSW,244,14.0,18.0,68,0.00,,,-99.99,,2013-04-20 19:11:00,
2013-04-20 13:21:00,35.0,26.0,-100.00,WSW,244,16.0,22.0,69,0.00,,,-99.99,,2013-04-20 19:21:00,
2013-04-20 13:32:00,35.0,26.0,-100.00,WSW,244,16.0,23.0,67,0.00,,,-99.99,,2013-04-20 19:32:00,
2013-04-20 13:42:00,35.0,26.0,-100.00,WSW,244,16.0,24.0,70,0.00,,,-99.99,,2013-04-20 19:42:00,
2013-04-20 13:52:00,36.0,26.0,-100.00,WSW,244,15.0,23.0,66,0.00,,,-99.99,,2013-04-20 19:52:00,
2013-04-20 14:02:00,34.0,27.0,-100.00,WSW,244,14.0,20.0,75,0.00,,,-99.99,,2013-04-20 20:02:00,
2013-04-20 14:12:00,34.0,27.0,-100.00,WSW,244,9.0,17.0,76,0.00,,,-99.99,,2013-04-20 20:12:00,
2013-04-20 14:21:00,34.0,28.0,-100.00,WSW,244,9.0,14.0,77,0.00,,,-99.99,,2013-04-20 20:21:00,
2013-04-20 14:32:00,33.0,28.0,-100.00,WSW,244,11.0,15.0,82,0.01,,,-99.99,,2013-04-20 20:32:00,
2013-04-20 14:42:00,33.0,28.0,-100.00,WSW,244,11.0,15.0,81,0.00,,,-99.99,,2013-04-20 20:42:00,
2013-04-20 14:52:00,33.0,28.0,-100.00,WSW,244,7.0,12.0,81,0.03,,,-99.99,,2013-04-20 20:52:00,
2013-04-20 15:01:00,32.0,29.0,-100.00,WSW,244,6.0,11.0,86,0.01,,,-99.99,,2013-04-20 21:01:00,
2013-04-20 15:12:00,32.0,29.0,-100.00,WSW,244,6.0,14.0,86,0.00,,,-99.99,,2013-04-20 21:12:00,
2013-04-20 15:21:00,33.0,30.0,-100.00,WSW,244,8.0,13.0,89,0.00,,,-99.99,,2013-04-20 21:21:00,
2013-04-20 15:32:00,35.0,27.0,-100.00,WSW,244,9.0,12.0,71,0.00,,,-99.99,,2013-04-20 21:32:00,
2013-04-20 15:52:00,37.0,26.0,-100.00,WSW,244,11.0,16.0,66,0.00,,,-99.99,,2013-04-20 21:52:00,
2013-04-20 16:02:00,36.0,27.0,-100.00,WSW,244,9.0,12.0,68,0.00,,,-99.99,,2013-04-20 22:02:00,
2013-04-20 16:12:00,35.0,28.0,-100.00,WSW,244,8.0,11.0,75,0.00,,,-99.99,,2013-04-20 22:12:00,
2013-04-20 16:22:00,35.0,27.0,-100.00,WSW,244,6.0,10.0,71,0.00,,,-99.99,,2013-04-20 22:22:00,
2013-04-20 16:33:00,-999.0,-99.9,-100.00,WSW,244,7.0,11.0,-999,-99.99,,,-99.99,,2013-04-20 22:33:00,
2013-04-20 16:42:00,35.0,28.0,-100.00,WSW,244,7.0,11.0,75,0.01,,,-99.99,,2013-04-20 22:42:00,
2013-04-20 16:52:00,36.0,28.0,-100.00,WSW,244,7.0,11.0,72,0.00,,,-99.99,,2013-04-20 22:52:00,
2013-04-20 17:02:00,37.0,29.0,-100.00,WSW,244,8.0,12.0,72,0.00,,,-99.99,,2013-04-20 23:02:00,
2013-04-20 17:11:00,37.0,27.0,-100.00,WSW,244,11.0,14.0,69,0.00,,,-99.99,,2013-04-20 23:11:00,
2013-04-20 17:22:00,36.0,27.0,-100.00,WSW,244,11.0,16.0,69,0.00,,,-99.99,,2013-04-20 23:22:00,
2013-04-20 17:32:00,36.0,28.0,-100.00,WSW,244,11.0,16.0,71,0.00,,,-99.99,,2013-04-20 23:32:00,
2013-04-20 17:42:00,36.0,27.0,-100.00,WSW,244,11.0,16.0,70,0.00,,,-99.99,,2013-04-20 23:42:00,
2013-04-20 17:52:00,36.0,27.0,-100.00,WSW,244,9.0,13.0,69,0.00,,,-99.99,,2013-04-20 23:52:00,
2013-04-20 18:01:00,35.0,26.0,-100.00,WSW,244,11.0,14.0,68,0.00,,,-99.99,,2013-04-21 00:01:00,
2013-04-20 18:11:00,35.0,26.0,-100.00,WSW,244,10.0,14.0,68,0.00,,,-99.99,,2013-04-21 00:11:00,
2013-04-20 18:21:00,35.0,26.0,-100.00,WSW,244,9.0,13.0,71,0.00,,,-99.99,,2013-04-21 00:21:00,
2013-04-20 18:32:00,35.0,26.0,-100.00,WSW,244,11.0,16.0,69,0.06,,,-99.99,,2013-04-21 00:32:00,
2013-04-20 18:42:00,33.0,27.0,-100.00,WSW,244,13.0,19.0,77,0.13,,,-99.99,,2013-04-21 00:42:00,
2013-04-20 18:52:00,33.0,27.0,-100.00,WSW,244,12.0,16.0,79,0.03,,,-99.99,,2013-04-21 00:52:00,
2013-04-20 19:01:00,33.0,27.0,-100.00,WSW,244,11.0,17.0,79,0.03,,,-99.99,,2013-04-21 01:01:00,
2013-04-20 19:11:00,32.0,27.0,-100.00,WSW,244,14.0,20.0,80,0.00,,,-99.99,,2013-04-21 01:11:00,
2013-04-20 19:21:00,31.0,27.0,-100.00,WSW,244,15.0,20.0,85,0.00,,,-99.99,,2013-04-21 01:21:00,
2013-04-20 19:31:00,30.0,27.0,-100.00,WSW,244,17.0,21.0,89,0.00,,,-99.99,,2013-04-21 01:31:00,
2013-04-20 19:52:00,29.0,28.0,-100.00,WSW,244,19.0,28.0,96,0.10,,,-99.99,,2013-04-21 01:52:00,
2013-04-20 20:01:00,29.0,28.0,-100.00,WSW,244,17.0,24.0,98,0.00,,,-99.99,,2013-04-21 02:01:00,
2013-04-20 20:11:00,29.0,28.0,-100.00,WSW,244,17.0,21.0,98,0.00,,,-99.99,,2013-04-21 02:11:00,
2013-04-20 20:21:00,29.0,29.0,-100.00,WSW,244,15.0,21.0,98,0.00,,,-99.99,,2013-04-21 02:21:00,
2013-04-20 20:32:00,29.0,29.0,-100.00,WSW,244,16.0,22.0,98,0.00,,,-99.99,,2013-04-21 02:32:00,
2013-04-20 20:41:00,29.0,28.0,-100.00,WSW,244,19.0,24.0,97,0.00,,,-99.99,,2013-04-21 02:41:00,
2013-04-20 20:51:00,29.0,29.0,-100.00,WSW,244,19.0,25.0,98,0.00,,,-99.99,,2013-04-21 02:51:00,
2013-04-20 21:01:00,29.0,29.0,-100.00,WSW,244,20.0,26.0,98,0.00,,,-99.99,,2013-04-21 03:01:00,
2013-04-20 21:11:00,29.0,29.0,-100.00,WSW,244,20.0,26.0,98,0.00,,,-99.99,,2013-04-21 03:11:00,
2013-04-20 21:21:00,29.0,29.0,-100.00,WSW,244,18.0,23.0,99,0.00,,,-99.99,,2013-04-21 03:21:00,
2013-04-20 21:32:00,28.0,28.0,-100.00,WSW,244,19.0,26.0,100,0.00,,,-99.99,,2013-04-21 03:32:00,
2013-04-20 21:42:00,29.0,29.0,-100.00,WSW,244,17.0,25.0,100,0.01,,,-99.99,,2013-04-21 03:42:00,
2013-04-20 21:52:00,29.0,29.0,-100.00,WSW,244,17.0,22.0,100,0.00,,,-99.99,,2013-04-21 03:52:00,
2013-04-20 22:02:00,28.0,28.0,-100.00,WSW,244,15.0,19.0,100,0.01,,,-99.99,,2013-04-21 04:02:00,
2013-04-20 22:12:00,28.0,28.0,-100.00,WSW,244,14.0,19.0,100,0.00,,,-99.99,,2013-04-21 04:12:00,
2013-04-20 22:22:00,28.0,28.0,-100.00,WSW,244,14.0,18.0,100,0.00,,,-99.99,,2013-04-21 04:22:00,
2013-04-20 22:33:00,28.0,28.0,-100.00,WSW,244,14.0,20.0,100,0.00,,,-99.99,,2013-04-21 04:33:00,
2013-04-20 22:52:00,28.0,28.0,-100.00,WSW,244,14.0,19.0,99,0.00,,,-99.99,,2013-04-21 04:52:00,
2013-04-20 23:02:00,28.0,28.0,-100.00,WSW,244,16.0,21.0,99,0.00,,,-99.99,,2013-04-21 05:02:00,
2013-04-20 23:12:00,28.0,28.0,-100.00,WSW,244,16.0,20.0,98,0.00,,,-99.99,,2013-04-21 05:12:00,
2013-04-20 23:22:00,29.0,27.0,-100.00,WSW,244,17.0,22.0,96,0.00,,,-99.99,,2013-04-21 05:22:00,
2013-04-20 23:32:00,29.0,27.0,-100.00,WSW,244,16.0,22.0,94,0.00,,,-99.99,,2013-04-21 05:32:00,
2013-04-20 23:42:00,29.0,27.0,-100.00,WSW,244,17.0,22.0,93,0.00,,,-99.99,,2013-04-21 05:42:00,
2013-04-20 23:52:00,29.0,27.0,-100.00,WSW,244,17.0,22.0,93,0.00,,,-99.99,,2013-04-21 05:52:00,